Los Angeles Downtown, CA

12:31 PM PST on January 19, 2018 (GMT -0800)
Los Angeles Downtown

Weather History for KCQT - July, 2013

Change the Weather History Date:

Monday, July 15, 2013

  Actual Average Record
Temperature  
Mean Temperature 74 °F 74 °F  
Max Temperature 83 °F 83 °F 98 °F (1886)
Min Temperature 64 °F 64 °F 50 °F (1893)
Degree Days  
Heating Degree Days 0 0  
Month to date heating degree days 0 0  
Since 1 June heating degree days 0 8  
Since 1 July heating degree days 0 0  
Cooling Degree Days 9 9  
Month to date cooling degree days 135 117  
Year to date cooling degree days 460 405  
Since 1 June cooling degree days 302 251  
Growing Degree Days 23 (Base 50)    
Moisture  
Dew Point 58 °F    
Average Humidity 64    
Maximum Humidity 87    
Minimum Humidity 40    
Precipitation  
Precipitation 0.00 in 0.00 in 0.00 in (2018)
Month to date precipitation 0.04 0.00  
Year to date precipitation 2.67 10.61  
Since 1 July precipitation 0.04  
Sea Level Pressure  
Sea Level Pressure 29.84 in    
Wind  
Wind Speed 1 mph (West)    
Max Wind Speed 10 mph    
Max Gust Speed 17 mph    
Visibility 10 miles    
Events      
T = Trace of Precipitation, MM = Missing Value Source: NWS Daily Summary

Daily Weather History Graph

Daily Weather History Graph

Search for Another Location

Airport or City:

Trip Planner

Search our weather history database for the weather conditions in past years. The results will help you decide how hot, cold, wet, or windy it might be!

Date:

Astronomy

Jul. 15, 2013 Rise Set
Actual Time 5:52 AM PDT 8:04 PM PDT
Civil Twilight 5:24 AM PDT 8:33 PM PDT
Nautical Twilight 4:49 AM PDT 9:07 PM PDT
Astronomical Twilight 4:11 AM PDT 9:45 PM PDT
Moon 12:54 PM PDT (7/15) No Moon Set
Length of Visible Light 15h 08m
Length of Day
14h 11m
Waxing Crescent, 46% of the Moon is Illuminated
Jul 15
Waxing Crescent
Jul 15
First Quarter
Jul 22
Full
Jul 29
Last Quarter
Aug 6
New

Hourly Weather History & Observations

Time (PDT) Temp. Heat Index Dew Point Humidity Pressure Visibility Wind Dir Wind Speed Gust Speed Precip Events Conditions
12:47 AM 69.1 °F - 61.0 °F 75% 29.86 in 10.0 mi Calm Calm - N/A   Clear
1:47 AM 69.1 °F - 62.1 °F 78% 29.85 in 10.0 mi Calm Calm - N/A   Clear
2:47 AM 68.0 °F - 62.1 °F 81% 29.84 in 10.0 mi Calm Calm - N/A   Clear
3:47 AM 66.9 °F - 63.0 °F 87% 29.84 in 8.0 mi Calm Calm - N/A   Clear
4:47 AM 66.9 °F - 62.1 °F 84% 29.83 in 9.0 mi Calm Calm - N/A   Clear
5:47 AM 66.0 °F - 61.0 °F 84% 29.84 in 10.0 mi Calm Calm - N/A   Clear
6:47 AM 66.9 °F - 61.0 °F 81% 29.85 in 8.0 mi Calm Calm - N/A   Clear
7:47 AM 71.1 °F - 63.0 °F 75% 29.86 in 7.0 mi Calm Calm - N/A   Clear
8:47 AM 73.0 °F - 63.0 °F 71% 29.86 in 8.0 mi Calm Calm - N/A   Clear
9:47 AM 78.1 °F - 62.1 °F 58% 29.86 in 10.0 mi Calm Calm - N/A   Clear
10:47 AM 82.0 °F 82.4 °F 60.1 °F 47% 29.85 in 10.0 mi Calm Calm - N/A   Clear
11:47 AM 81.0 °F 81.7 °F 61.0 °F 50% 29.85 in 10.0 mi Calm Calm - N/A   Clear
12:47 PM 79.0 °F - 60.1 °F 52% 29.85 in 10.0 mi Variable 4.6 mph - N/A   Clear
1:47 PM 80.1 °F 80.7 °F 59.0 °F 48% 29.84 in 10.0 mi Variable 3.5 mph - N/A   Clear
2:47 PM 81.0 °F 81.3 °F 59.0 °F 47% 29.83 in 10.0 mi Variable 3.5 mph - N/A   Clear
3:47 PM 78.1 °F - 55.9 °F 46% 29.82 in 10.0 mi West 5.8 mph - N/A   Clear
4:47 PM 75.0 °F - 57.0 °F 53% 29.81 in 10.0 mi West 8.1 mph - N/A   Clear
5:47 PM 77.0 °F - 51.1 °F 40% 29.80 in 10.0 mi Variable 4.6 mph - N/A   Clear
6:47 PM 73.9 °F - 51.1 °F 45% 29.79 in 10.0 mi Variable 4.6 mph - N/A   Clear
7:47 PM 71.1 °F - 48.9 °F 45% 29.81 in 10.0 mi Calm Calm - N/A   Clear
8:47 PM 68.0 °F - 52.0 °F 56% 29.83 in 10.0 mi Calm Calm - N/A   Clear
9:47 PM 66.0 °F - 54.0 °F 65% 29.85 in 10.0 mi Calm Calm - N/A   Clear
10:47 PM 64.9 °F - 55.0 °F 70% 29.86 in 10.0 mi Calm Calm - N/A   Clear
11:47 PM 64.9 °F - 55.0 °F 70% 29.86 in 10.0 mi Calm Calm - N/A   Clear